Regional Weather Roundup
Issued by NWS

Home | Current Version | Previous Version | Text Only | Print | Product List | Glossary Off
Versions: 1 2 3 4 5 6 7 8 9 10 11 12 13 14 15 16 17 18 19 20 21 22 23 24 25 26 27 28 29 30 31 32 33 34 35 36 37 38 39 40 41 42 43 44 45 46 47 48 49 50

000
ASUS43 KOAX 070110
RWRNE

WEATHER ROUNDUP FOR NEBRASKA
NATIONAL WEATHER SERVICE OMAHA NE
800 PM CDT MON JUL 06 2015

NOTES: SATELLITE DATA IS BEING USED TO AUGMENT CLOUD COVER ABOVE
       12000 FEET.
       "FAIR" INDICATES FEW OR NO CLOUDS BELOW 12,000 FEET WITH NO
       SIGNIFICANT WEATHER AND/OR OBSTRUCTIONS TO VISIBILITY.

  * THESE STATIONS DO NOT REPORT WEATHER SUCH AS RAIN...SNOW OR FOG.

NEZ001>004-019>022-054>056-070200-
NEBRASKA PANHANDLE

CITY           SKY/WX    TMP DP  RH WIND       PRES   REMARKS
SCOTTSBLUFF    CLOUDY    67  54  63 NE3       30.21S HAZE
ALLIANCE       CLOUDY    67  55  65 N6        30.19F HAZE
CHADRON        SUNNY     70  54  56 NE6       30.18F
KIMBALL          N/A    N/A N/A N/A MISG        N/A
SIDNEY         CLOUDY    67  52  58 NE9       30.22S HAZE
$$

NEZ057>060-069>072-079>082-070200-
SOUTHWEST NEBRASKA

CITY           SKY/WX    TMP DP  RH WIND       PRES   REMARKS
NORTH PLATTE   MOSUNNY   73  52  47 N14       30.13R
IMPERIAL       CLOUDY    71  51  49 NE10      30.14S
LEXINGTON      SUNNY     73  54  50 N10G21    30.08R HAZE
MCCOOK         SUNNY     74  53  48 N14       30.09R HAZE
OGALLALA       CLOUDY    71  53  52 NE10      30.16R HAZE
$$

NEZ005>010-023>029-035>040-094-070200-
NORTH CENTRAL NEBRASKA

CITY           SKY/WX    TMP DP  RH WIND       PRES   REMARKS
VALENTINE      SUNNY     71  53  52 N14       30.13S
AINSWORTH      SUNNY     71  53  53 N12       30.13R
BROKEN BOW     MOSUNNY   72  53  51 N10G21    30.10R
O`NEILL        MOSUNNY   70  55  59 N12G18    30.10R HAZE
ORD            MOSUNNY   72  51  47 N14G21    30.08R
THEDFORD       SUNNY     70  55  59 N10       30.15R
$$

NEZ041-046>049-061>064-073>077-083>087-070200-
SOUTH CENTRAL NEBRASKA

CITY           SKY/WX    TMP DP  RH WIND       PRES   REMARKS
GRAND ISLAND   CLOUDY    72  58  61 N20       30.05R HAZE
AURORA           N/A     71  58  63 N12G18    30.03R HAZE
HASTINGS       CLOUDY    72  58  61 NE14G22   30.04R HAZE
HEBRON         CLOUDY    73  60  65 N15G23    30.00R HAZE
HOLDREGE       SUNNY     71  55  57 N12G17    30.07R HAZE
KEARNEY *      SUNNY     72  55  56 N16       30.06R
YORK           PTSUNNY   72  64  78 N13G18    30.02R HAZE
$$

NEZ011>018-030>034-042>045-070200-
NORTHEAST NEBRASKA

CITY           SKY/WX    TMP DP  RH WIND       PRES   REMARKS
NORFOLK        CLOUDY    73  58  59 N21G28    30.03R HAZE
ALBION         MOSUNNY   71  56  58 N8G16     30.05R HAZE
BLAIR          CLOUDY    71  62  72 N12G20    29.98R HAZE
FREMONT        CLOUDY    73  59  61 N9G20     30.00R HAZE
TEKAMAH        CLOUDY    73  62  68 N10       29.99R HAZE
WAYNE          CLOUDY    71  61  72 N9        30.04R HAZE
$$

NEZ050>053-065>068-078-088>093-070200-
SOUTHEAST NEBRASKA

CITY           SKY/WX    TMP DP  RH WIND       PRES   REMARKS
LINCOLN        CLOUDY    73  62  68 N20       29.99R HAZE
OMAHA EPPLEY   CLOUDY    73  65  75 N10       29.97R HAZE
BEATRICE       CLOUDY    72  65  79 N17G24    29.97R
FALLS CITY     LGT RAIN  69  67  93 N15G23    29.92R FOG
NEBRASKA CITY  CLOUDY    70  66  86 N13       29.95R FOG
PLATTSMOUTH    CLOUDY    72  63  73 N8G18     29.96R
$$

NEZ044-045-051>053-067-070200-
OMAHA AREA

CITY           SKY/WX    TMP DP  RH WIND       PRES   REMARKS
OMAHA EPPLEY   CLOUDY    73  65  75 N10       29.97R HAZE
BLAIR          CLOUDY    71  62  72 N12G20    29.98R HAZE
FREMONT        CLOUDY    73  59  61 N9G20     30.00R HAZE
MILLARD        CLOUDY    74  64  71 N10G16    29.96R HAZE
OFFUTT AFB     CLOUDY    72  64  74 N10       29.95R
PLATTSMOUTH    CLOUDY    72  63  73 N8G18     29.96R
WAHOO          FAIR      73  63  71 N13G18    29.98R HAZE
$$


USA.gov is the U.S. government's official web portal to all federal, state and local government web resources and services.